When you browse on this site, cookies collect data to enhance your experience and personalize the content and advertising you see.
Visit our Privacy Policy to learn more. By continuing to use the site, you agree to this use of cookies and data.
  • In Hungary
  • List of Countries
  • For 7 days
  • Water Temperature
  • Weather Map
  • News
  • Weather Widgets
  • user-avatar
    Login

    Hourly Weather Jodhpur

    Today, 14 November, Thursday

    Time Temperature Precipitation Wind Pressure Humidity
    00:00 +28°C° 0 mm 3 mps 741 mmHg 45%
    01:00 +28°C° 0 mm 3 mps 741 mmHg 46%
    02:00 +27°C° 0 mm 3 mps 741 mmHg 47%
    03:00 +27°C° 0 mm 3 mps 741 mmHg 46%
    04:00 +26°C° 0 mm 2 mps 741 mmHg 46%
    05:00 +26°C° 0 mm 4 mps 741 mmHg 48%
    06:00 +26°C° 0.4 mm 4 mps 741 mmHg 48%
    07:00 +26°C° 0.4 mm 3 mps 742 mmHg 48%
    08:00 +26°C° 0.4 mm 3 mps 742 mmHg 48%
    09:00 +27°C° 0.4 mm 3 mps 742 mmHg 47%
    10:00 +28°C° 0.4 mm 3 mps 742 mmHg 46%
    11:00 +30°C° 0 mm 2 mps 743 mmHg 36%
    12:00 +30°C° 0.3 mm 3 mps 742 mmHg 36%
    13:00 +31°C° 0.3 mm 3 mps 741 mmHg 36%
    14:00 +32°C° 0.3 mm 4 mps 741 mmHg 36%
    15:00 +29°C° 1.6 mm 5 mps 740 mmHg 43%
    16:00 +27°C° 1.6 mm 6 mps 740 mmHg 49%
    17:00 +24°C° 1.6 mm 7 mps 740 mmHg 56%
    18:00 +23°C° 1.3 mm 6 mps 741 mmHg 59%
    19:00 +23°C° 1.3 mm 6 mps 741 mmHg 63%
    20:00 +22°C° 1.3 mm 6 mps 742 mmHg 67%
    21:00 +22°C° 0.7 mm 6 mps 742 mmHg 65%
    22:00 +22°C° 0.7 mm 6 mps 741 mmHg 63%
    23:00 +22°C° 0.7 mm 6 mps 741 mmHg 62%

    Tomorrow, 15 November, Friday

    Time Temperature Precipitation Wind Pressure Humidity
    00:00 +22°C° 0 mm 6 mps 741 mmHg 62%
    01:00 +22°C° 0 mm 6 mps 741 mmHg 61%
    02:00 +22°C° 0 mm 5 mps 740 mmHg 61%
    03:00 +22°C° 0 mm 4 mps 740 mmHg 58%
    04:00 +22°C° 0 mm 4 mps 740 mmHg 55%
    05:00 +22°C° 0 mm 3 mps 740 mmHg 52%
    06:00 +23°C° 0 mm 4 mps 740 mmHg 51%
    07:00 +23°C° 0 mm 4 mps 741 mmHg 51%
    08:00 +25°C° 0 mm 4 mps 742 mmHg 50%
    09:00 +27°C° 0 mm 4 mps 742 mmHg 45%
    10:00 +29°C° 0 mm 4 mps 742 mmHg 40%
    11:00 +31°C° 0 mm 3 mps 742 mmHg 35%
    12:00 +31°C° 0 mm 3 mps 741 mmHg 33%
    13:00 +32°C° 0 mm 2 mps 740 mmHg 32%
    14:00 +32°C° 0 mm 2 mps 740 mmHg 30%
    15:00 +32°C° 0 mm 2 mps 739 mmHg 32%
    16:00 +31°C° 0 mm 1 mps 739 mmHg 35%
    17:00 +30°C° 0 mm 1 mps 739 mmHg 37%
    18:00 +29°C° 0 mm 2 mps 739 mmHg 40%
    19:00 +28°C° 0 mm 4 mps 740 mmHg 43%
    20:00 +27°C° 0 mm 5 mps 740 mmHg 46%
    21:00 +26°C° 0 mm 6 mps 740 mmHg 49%
    22:00 +24°C° 0 mm 6 mps 740 mmHg 53%
    23:00 +23°C° 0 mm 6 mps 740 mmHg 57%

    Day after tomorrow, 16 November, Saturday

    Time Temperature Precipitation Wind Pressure Humidity
    00:00 +23°C° 0 mm 6 mps 740 mmHg 56%
    01:00 +23°C° 0 mm 5 mps 740 mmHg 56%
    02:00 +23°C° 0 mm 5 mps 739 mmHg 55%
    03:00 +22°C° 0 mm 4 mps 739 mmHg 55%
    04:00 +22°C° 0 mm 4 mps 739 mmHg 55%
    05:00 +22°C° 0 mm 3 mps 739 mmHg 55%
    06:00 +22°C° 0 mm 3 mps 740 mmHg 52%
    07:00 +23°C° 0 mm 4 mps 741 mmHg 50%
    08:00 +25°C° 0 mm 4 mps 741 mmHg 48%
    09:00 +26°C° 0 mm 3 mps 741 mmHg 43%
    10:00 +28°C° 0 mm 3 mps 742 mmHg 38%
    11:00 +30°C° 0 mm 3 mps 742 mmHg 33%
    12:00 +30°C° 0 mm 2 mps 741 mmHg 32%
    13:00 +31°C° 0 mm 1 mps 741 mmHg 30%
    14:00 +29°C° 0 mm 0 mps 740 mmHg 29%
    15:00 +29°C° 0 mm 0 mps 740 mmHg 32%
    16:00 +28°C° 0 mm 0 mps 740 mmHg 35%
    17:00 +30°C° 0 mm 1 mps 740 mmHg 37%
    18:00 +29°C° 0 mm 1 mps 740 mmHg 38%
    19:00 +28°C° 0 mm 2 mps 741 mmHg 39%
    20:00 +28°C° 0 mm 3 mps 742 mmHg 39%
    21:00 +27°C° 0 mm 4 mps 742 mmHg 42%
    22:00 +26°C° 0 mm 4 mps 742 mmHg 46%
    23:00 +26°C° 0 mm 5 mps 742 mmHg 49%

    17 November, Sunday

    Time Temperature Precipitation Wind Pressure Humidity
    00:00 +25°C° 0 mm 5 mps 742 mmHg 51%
    01:00 +25°C° 0 mm 5 mps 741 mmHg 53%
    02:00 +23°C° 0 mm 5 mps 741 mmHg 54%
    03:00 +23°C° 0 mm 5 mps 741 mmHg 56%
    04:00 +22°C° 0 mm 5 mps 741 mmHg 58%
    05:00 +22°C° 0 mm 5 mps 741 mmHg 60%
    06:00 +22°C° 0 mm 5 mps 742 mmHg 59%
    07:00 +23°C° 0 mm 5 mps 743 mmHg 57%
    08:00 +23°C° 0 mm 5 mps 743 mmHg 56%
    09:00 +26°C° 0 mm 5 mps 743 mmHg 51%
    10:00 +27°C° 0 mm 5 mps 743 mmHg 45%
    11:00 +29°C° 0 mm 4 mps 743 mmHg 39%
    12:00 +30°C° 0 mm 4 mps 742 mmHg 37%
    13:00 +30°C° 0 mm 4 mps 742 mmHg 35%
    14:00 +31°C° 0 mm 3 mps 741 mmHg 33%
    15:00 +30°C° 0 mm 3 mps 741 mmHg 35%
    16:00 +30°C° 0 mm 3 mps 741 mmHg 37%
    17:00 +29°C° 0 mm 3 mps 741 mmHg 39%
    18:00 +28°C° 0 mm 3 mps 741 mmHg 41%
    19:00 +27°C° 0 mm 3 mps 741 mmHg 44%
    20:00 +26°C° 0 mm 4 mps 742 mmHg 47%
    21:00 +26°C° 0 mm 4 mps 742 mmHg 48%
    22:00 +25°C° 0 mm 4 mps 742 mmHg 49%
    23:00 +25°C° 0 mm 4 mps 742 mmHg 50%

    18 November, Monday

    Time Temperature Precipitation Wind Pressure Humidity
    00:00 +24°C° 0 mm 3 mps 741 mmHg 51%
    01:00 +24°C° 0 mm 3 mps 741 mmHg 52%
    02:00 +23°C° 0 mm 2 mps 741 mmHg 52%
    03:00 +23°C° 0 mm 2 mps 741 mmHg 53%
    04:00 +21°C° 0 mm 2 mps 741 mmHg 53%
    05:00 +22°C° 0 mm 1 mps 741 mmHg 53%
    06:00 +23°C° 0 mm 1 mps 741 mmHg 51%
    07:00 +23°C° 0 mm 1 mps 742 mmHg 48%
    08:00 +24°C° 0 mm 1 mps 742 mmHg 45%
    09:00 +23°C° 0 mm 0 mps 742 mmHg 42%
    10:00 +24°C° 0 mm 0 mps 742 mmHg 38%
    11:00 +26°C° 0 mm 0 mps 742 mmHg 34%
    12:00 +28°C° 0 mm 1 mps 742 mmHg 32%
    13:00 +29°C° 0 mm 2 mps 741 mmHg 30%
    14:00 +30°C° 0 mm 3 mps 740 mmHg 27%
    15:00 +29°C° 0 mm 3 mps 740 mmHg 29%
    16:00 +28°C° 0 mm 3 mps 740 mmHg 31%
    17:00 +28°C° 0 mm 2 mps 740 mmHg 32%
    18:00 +27°C° 0 mm 2 mps 740 mmHg 34%
    19:00 +26°C° 0 mm 2 mps 741 mmHg 36%
    20:00 +25°C° 0 mm 1 mps 741 mmHg 39%
    21:00 +25°C° 0 mm 1 mps 741 mmHg 39%
    22:00 +25°C° 0 mm 1 mps 741 mmHg 40%
    23:00 +24°C° 0 mm 1 mps 741 mmHg 41%

    19 November, Tuesday

    Time Temperature Precipitation Wind Pressure Humidity
    00:00 +24°C° 0 mm 1 mps 740 mmHg 42%
    01:00 +23°C° 0 mm 1 mps 740 mmHg 42%
    02:00 +23°C° 0 mm 1 mps 740 mmHg 42%
    03:00 +22°C° 0 mm 1 mps 739 mmHg 44%
    04:00 +22°C° 0 mm 1 mps 739 mmHg 45%
    05:00 +19°C° 0 mm 0 mps 739 mmHg 46%
    06:00 +22°C° 0 mm 1 mps 740 mmHg 45%
    07:00 +23°C° 0 mm 1 mps 740 mmHg 43%
    08:00 +24°C° 0 mm 2 mps 741 mmHg 41%
    09:00 +25°C° 0 mm 2 mps 741 mmHg 37%
    10:00 +27°C° 0 mm 2 mps 741 mmHg 34%
    11:00 +28°C° 0 mm 2 mps 741 mmHg 30%
    12:00 +29°C° 0 mm 2 mps 740 mmHg 28%
    13:00 +29°C° 0 mm 2 mps 739 mmHg 26%
    14:00 +30°C° 0 mm 2 mps 738 mmHg 23%
    15:00 +29°C° 0 mm 2 mps 738 mmHg 25%
    16:00 +28°C° 0 mm 2 mps 738 mmHg 27%
    17:00 +28°C° 0 mm 2 mps 738 mmHg 29%
    18:00 +27°C° 0 mm 1 mps 738 mmHg 31%
    19:00 +26°C° 0 mm 1 mps 739 mmHg 34%
    20:00 +25°C° 0 mm 1 mps 739 mmHg 37%
    21:00 +22°C° 0 mm 0 mps 739 mmHg 38%
    22:00 +22°C° 0 mm 0 mps 739 mmHg 39%
    23:00 +21°C° 0 mm 0 mps 739 mmHg 40%
    Show more